Theta_e
348 352 357 359 358 358 358 358 358 357 357 356 356 356 356 355 355 355 354 354 354 354 353 353 353 353 353 353 353 352 352 352 352 352 351 351 351 351 350 349 349 348 348 349 349 349 348 348 348 347 348 347 348 348 348 348 347 346 346 345 345 344 343 344 344 344 344 344 344 345 345 345 345 344 343 342 341 340 342 342 341 338 336 337 339
348 354 357 359 357 357 358 358 357 357 357 356 356 355 355 355 355 355 354 354 354 354 354 354 353 353 353 353 353 353 353 352 352 352 351 351 350 350 349 350 350 349 349 348 347 347 347 347 347 347 347 347 347 346 347 347 346 346 345 345 345 345 344 343 343 343 344 344 344 344 343 342 342 343 342 342 342 341 341 341 341 337 336 340 340
353 355 356 357 358 358 357 357 357 357 356 356 356 356 355 355 355 355 355 355 355 354 354 354 353 353 353 353 353 353 352 352 351 350 350 350 350 349 349 349 349 350 349 349 348 348 347 347 347 348 348 347 347 346 346 346 345 345 344 345 345 344 344 344 344 344 344 342 342 343 343 342 343 343 342 341 341 341 340 340 339 339 334 337 337
351 353 353 357 359 357 356 357 357 357 356 355 356 355 355 355 355 355 355 355 355 354 354 354 353 353 353 353 353 352 352 351 350 350 349 349 349 349 349 349 349 350 350 350 349 349 348 348 347 347 346 346 346 346 346 346 345 344 344 344 344 343 343 344 344 344 344 343 342 341 340 334 337 341 341 341 341 340 340 339 339 338 338 337 336
351 354 354 352 354 355 356 356 356 356 356 355 355 355 355 355 355 355 355 354 354 354 354 353 353 352 352 352 352 352 351 350 350 350 350 349 349 349 349 349 349 350 350 348 347 347 348 346 346 345 345 345 346 346 346 345 345 343 344 344 343 343 343 343 342 342 342 341 341 339 331 333 334 340 340 339 341 340 340 340 340 339 340 340 339
349 353 354 353 354 354 355 355 355 355 356 356 355 355 355 355 355 355 354 354 354 353 353 353 353 353 352 352 352 352 351 350 350 350 350 349 349 349 350 350 349 349 349 348 346 345 346 347 347 345 346 346 345 346 345 346 344 344 344 343 342 343 343 343 342 342 341 341 340 333 332 332 333 336 340 340 340 338 337 338 338 338 338 338 338
349 352 354 353 353 354 354 355 355 355 354 355 355 355 355 355 355 354 354 354 354 353 353 353 353 352 352 352 352 351 351 351 351 351 350 350 350 349 348 348 348 347 347 346 348 349 349 349 349 347 346 346 345 345 345 346 347 345 344 344 343 343 345 345 343 342 340 337 330 330 330 332 333 332 343 344 341 340 339 337 336 337 338 337 338
348 352 353 353 353 354 354 355 354 355 355 355 355 355 355 355 355 354 354 354 353 353 353 352 352 352 352 352 352 351 351 350 350 351 350 350 350 349 349 346 346 346 346 348 348 349 349 349 349 349 348 347 347 347 347 346 346 345 344 345 344 343 344 343 342 341 340 334 330 329 329 331 332 334 341 341 342 341 341 339 338 337 336 337 338
347 351 352 353 353 354 355 354 355 356 355 355 354 355 355 355 355 354 354 354 353 353 352 352 352 351 351 351 351 351 351 350 349 349 351 350 350 349 350 351 352 351 349 348 348 348 347 347 346 347 348 347 347 347 347 346 345 344 343 343 343 343 343 341 342 343 339 335 331 330 330 332 332 332 340 342 341 339 338 339 339 339 338 338 338
347 349 351 351 352 355 354 354 355 354 355 355 355 354 354 355 355 354 354 354 353 353 352 352 352 351 351 351 351 350 350 350 349 349 349 348 348 349 349 349 349 349 349 348 347 346 346 345 346 347 348 348 347 346 345 344 345 344 344 343 342 342 341 341 341 342 335 334 332 331 333 340 333 336 339 339 338 338 338 337 339 338 337 337 337
348 350 351 350 352 353 353 354 354 354 355 355 355 354 354 354 354 353 353 353 353 353 352 352 351 350 350 350 350 350 350 349 349 348 347 347 348 349 349 350 350 349 347 347 347 346 346 345 345 347 348 347 346 345 344 344 343 343 342 342 342 341 341 341 341 333 335 332 331 331 340 341 330 333 342 341 340 340 340 339 336 335 337 337 337
348 350 351 351 353 352 353 354 353 353 353 354 354 354 354 354 353 353 353 353 353 352 352 351 351 350 350 350 350 349 349 349 348 348 347 347 348 348 350 350 350 350 349 347 347 347 347 347 346 345 345 345 345 344 343 343 343 342 342 342 341 342 341 340 333 332 334 332 331 332 334 332 332 338 341 340 338 338 338 338 338 338 336 336 335
348 349 348 349 350 352 352 352 353 352 351 354 353 353 353 353 353 353 353 352 352 352 351 351 351 350 350 349 349 349 349 348 348 348 347 347 348 348 349 350 350 350 350 349 348 348 347 346 345 344 343 343 343 343 343 342 343 342 341 341 342 343 341 339 333 333 332 332 334 332 330 329 332 340 340 339 339 338 337 337 337 337 336 336 339
348 348 349 349 350 352 351 351 352 354 352 352 353 353 353 353 353 353 352 352 352 352 351 351 351 350 350 350 349 349 348 348 348 348 348 347 347 347 348 349 349 348 348 348 347 346 346 344 344 343 342 342 341 341 342 342 342 342 342 342 343 343 341 339 338 333 334 332 331 330 329 332 332 340 339 339 338 338 338 337 335 335 336 337 336
345 346 347 347 348 349 352 351 352 353 352 352 352 352 353 352 352 351 352 352 351 351 351 351 350 350 350 349 350 349 348 348 348 347 347 347 346 347 347 347 347 348 347 347 347 346 345 344 343 342 341 340 341 340 339 341 341 343 343 343 344 345 341 334 334 332 332 333 331 333 329 330 341 341 339 339 338 337 336 336 336 335 335 336 335
342 343 347 348 348 350 351 353 352 352 352 352 352 352 352 351 351 351 351 351 351 350 350 350 350 350 350 349 349 349 348 348 348 347 347 346 346 346 346 346 346 347 347 346 345 344 344 343 342 341 340 340 340 340 341 342 342 343 343 344 344 345 342 338 331 331 331 331 331 331 329 333 341 340 339 339 338 337 336 336 336 335 335 336 335
344 345 346 346 345 348 350 351 350 352 351 351 352 351 351 351 351 351 351 351 350 350 350 351 350 350 349 349 349 349 349 348 347 347 346 346 346 345 345 345 346 345 346 345 344 344 343 342 341 341 340 340 340 341 341 341 343 342 343 344 344 345 342 338 331 330 330 333 333 331 328 333 340 341 339 338 337 336 336 335 336 335 335 336 336
344 344 344 345 344 347 348 349 351 349 349 351 351 351 351 351 350 350 350 350 350 350 350 350 350 349 349 349 349 349 349 349 348 347 347 346 347 345 345 345 345 345 345 345 344 343 343 342 341 341 340 340 339 341 341 341 342 342 343 343 343 343 342 339 330 331 332 336 331 333 332 338 341 340 339 338 337 336 336 335 335 335 334 335 335
343 344 344 344 344 347 348 348 348 349 349 348 348 349 351 350 350 350 350 350 350 350 350 350 350 350 350 350 349 349 348 348 348 347 347 346 345 346 345 345 345 345 345 344 344 343 343 342 342 341 340 339 340 341 341 342 342 342 342 343 341 341 342 337 331 331 333 333 330 330 328 339 340 340 339 338 337 336 335 334 335 335 334 334 334
339 340 341 342 344 346 346 346 347 348 348 347 347 348 350 351 350 350 350 350 350 349 350 350 350 350 350 350 349 348 348 346 348 346 347 347 346 344 344 344 345 345 345 345 344 343 343 342 341 341 341 339 339 341 341 340 340 342 342 341 340 340 333 330 331 332 331 331 331 329 336 340 339 339 339 338 337 336 335 334 334 333 334 334 335
336 336 338 341 343 345 345 345 347 348 347 347 347 347 349 351 349 350 350 350 349 350 349 350 350 349 349 349 347 342 340 340 343 341 346 343 346 345 344 344 345 345 345 344 344 344 343 343 342 341 341 340 340 342 340 338 338 339 341 339 338 329 331 330 331 333 331 332 334 328 339 340 339 339 339 338 337 336 335 334 334 334 334 333 334
332 334 337 341 342 344 344 345 346 346 346 347 347 347 348 349 346 347 347 348 349 349 348 345 350 342 348 345 340 344 339 336 338 346 341 343 343 345 344 345 344 344 344 344 344 344 343 343 343 342 342 340 340 325 326 334 336 338 337 336 328 327 330 330 330 331 332 330 331 332 340 339 339 339 338 337 337 336 335 335 334 334 333 334 335
331 332 336 340 341 342 344 345 345 345 345 346 346 346 345 344 344 345 346 348 348 348 343 347 340 340 341 340 340 340 338 338 339 344 343 346 343 344 344 344 344 344 344 344 344 343 343 343 343 343 342 341 326 321 322 321 321 334 334 327 323 326 328 329 329 331 331 330 329 338 340 340 339 339 338 338 337 336 335 335 334 334 333 334 335
330 332 335 340 341 341 343 344 344 344 344 344 345 344 343 344 343 343 344 343 343 344 342 341 340 339 339 336 336 338 337 335 347 347 346 343 342 345 344 344 344 344 344 343 344 343 343 343 343 343 340 334 325 324 325 323 323 322 322 323 323 325 328 329 329 330 330 335 330 340 340 339 339 339 338 338 337 336 336 335 334 333 333 333 333
331 332 335 337 339 340 341 342 343 343 342 344 344 343 343 343 342 341 341 340 340 340 340 339 339 338 336 335 336 336 334 333 332 336 337 338 335 336 337 336 335 335 343 332 333 336 337 332 334 334 328 327 327 325 324 326 324 324 323 323 325 324 328 329 329 329 330 333 332 340 341 341 340 338 338 338 336 336 336 334 334 333 332 332 332
331 331 333 336 338 341 342 341 342 341 342 343 342 344 344 342 342 342 341 339 339 338 338 338 338 336 335 335 335 332 333 331 330 332 336 335 334 334 333 332 332 333 335 331 332 332 331 331 329 329 327 325 326 325 323 326 325 323 322 322 323 325 328 328 329 330 331 331 334 341 341 341 340 338 338 337 337 336 336 334 334 333 332 332 332
330 331 333 335 337 341 342 341 340 340 341 342 342 343 341 342 342 342 340 338 336 337 336 335 336 335 336 337 333 331 330 328 329 331 332 333 334 332 332 331 330 331 333 332 331 331 331 330 329 329 327 326 327 327 325 324 322 323 322 323 323 324 327 328 329 330 330 330 335 342 341 341 341 339 338 337 336 336 335 334 333 333 332 331 331
330 330 332 334 336 340 342 342 340 340 339 341 341 340 339 339 341 343 340 342 337 335 335 334 335 334 335 334 335 331 329 328 328 329 330 330 332 331 330 331 331 331 334 332 331 329 330 330 329 327 328 328 328 328 325 325 323 322 323 323 322 323 327 328 329 330 330 331 333 341 341 341 340 339 338 337 336 336 335 334 334 333 332 331 331
329 329 331 332 335 341 342 341 340 340 339 340 340 338 338 337 340 342 339 344 335 334 335 334 333 334 334 336 336 330 328 330 329 328 328 328 330 331 331 330 329 330 332 331 332 330 329 330 329 329 327 328 325 327 326 326 322 322 321 323 323 323 326 327 328 329 330 330 333 338 341 341 340 340 339 337 337 336 335 334 333 333 332 331 331
329 329 330 332 337 342 341 340 340 340 340 339 338 338 337 337 338 339 338 342 335 334 334 332 332 332 331 334 335 331 330 329 330 328 328 328 328 329 329 331 330 330 331 332 330 329 328 328 328 328 329 327 328 328 326 326 326 324 321 322 322 326 327 328 328 329 330 331 332 333 342 340 339 339 339 338 337 337 336 334 334 333 333 332 331
328 328 329 332 337 340 340 341 341 343 340 339 338 337 338 337 337 337 338 338 336 336 334 333 331 331 332 332 333 332 330 330 329 328 327 328 327 327 328 328 329 330 329 329 329 329 327 327 328 329 329 328 329 327 327 326 323 323 322 322 320 326 326 327 328 329 330 330 331 331 337 341 339 340 339 338 339 337 337 335 334 334 333 333 333
325 327 328 331 336 339 340 340 340 341 339 339 340 337 337 337 338 336 337 336 337 334 333 332 335 331 332 331 330 330 331 329 328 328 327 327 328 327 328 328 329 327 328 328 327 328 329 329 330 329 330 328 328 326 324 324 321 324 324 325 323 326 325 326 328 329 329 329 329 329 330 335 339 339 339 337 338 340 337 337 336 334 333 334 333
323 325 328 328 334 338 338 338 340 340 338 338 338 337 336 338 336 336 336 337 336 333 332 331 332 331 330 330 328 330 329 328 329 330 333 327 327 326 326 328 328 328 327 329 328 326 326 328 327 329 328 327 326 324 326 323 325 325 326 327 325 324 326 327 327 328 329 329 328 329 329 330 331 338 337 338 338 338 339 337 337 336 334 333 333
324 325 326 326 332 337 337 337 338 337 336 336 336 335 335 335 335 333 336 334 333 332 333 329 331 330 332 330 329 330 330 329 329 329 328 326 327 326 325 326 327 326 326 325 325 325 326 328 328 324 329 327 324 323 324 326 326 325 326 325 326 324 324 325 325 326 326 327 328 328 328 329 329 330 332 339 338 338 337 339 337 337 335 334 333
324 324 325 327 330 335 337 337 337 336 337 336 336 334 333 335 333 333 333 332 331 330 329 329 329 329 330 330 329 330 331 329 330 329 326 326 327 325 325 326 327 328 326 325 326 325 327 328 328 323 324 324 325 326 325 326 325 326 325 325 327 327 327 326 324 325 326 325 326 328 329 329 329 330 331 329 336 338 336 337 339 338 337 336 334
324 324 326 327 329 333 337 335 335 333 332 333 331 333 332 331 332 334 330 328 329 327 327 328 327 328 329 327 329 329 328 328 328 326 326 326 327 325 326 326 328 326 325 325 326 326 327 327 328 324 324 325 327 324 325 325 325 326 324 326 326 328 326 326 326 325 325 326 326 326 329 329 329 328 334 329 329 331 336 336 337 338 338 337 336
326 326 325 326 327 331 336 334 333 332 329 329 328 328 329 329 330 330 328 328 327 326 326 326 327 327 326 326 327 330 328 328 329 328 326 326 326 325 327 325 328 325 324 323 325 326 327 328 326 326 323 324 325 325 324 325 325 325 326 325 325 327 326 327 326 326 326 323 323 325 327 328 329 337 330 328 328 328 333 336 337 337 337 337 338
326 325 325 326 327 330 331 332 330 329 327 326 327 327 327 328 326 326 330 326 325 326 325 325 325 325 325 325 328 329 329 329 329 328 325 327 327 325 325 325 326 325 324 323 324 325 325 325 325 325 324 323 323 324 323 322 324 325 325 325 325 326 325 326 327 329 326 326 323 324 325 325 327 328 330 329 329 328 328 331 336 337 337 334 334
323 324 325 326 326 326 328 330 326 324 324 325 327 326 325 324 324 324 323 323 323 322 323 323 323 324 323 325 329 329 330 328 329 329 326 327 325 324 324 325 325 324 323 323 323 324 323 324 324 325 327 326 323 321 322 323 324 324 325 324 324 324 324 326 327 327 326 326 328 328 327 324 326 327 327 328 328 328 328 327 328 329 331 335 336
324 324 325 325 325 325 325 324 323 323 324 325 326 324 324 323 322 321 321 321 320 324 321 322 321 321 325 326 328 327 329 329 328 328 325 326 324 323 324 324 324 322 322 321 321 322 323 323 322 324 324 324 325 325 323 323 321 320 320 320 323 326 326 323 324 326 325 326 326 326 326 326 324 325 328 328 329 329 330 329 330 330 331 333 335
324 324 324 324 324 324 323 321 322 323 324 323 323 323 321 318 318 319 318 317 319 318 318 319 321 321 324 324 327 327 327 330 329 326 325 330 323 323 323 323 324 322 321 321 320 321 322 323 324 322 321 321 322 323 322 320 320 318 315 315 319 326 330 326 325 325 326 324 324 325 325 326 326 325 325 326 329 329 329 330 331 331 331 331 332
323 323 323 324 323 322 322 321 320 320 322 323 323 321 319 320 319 317 315 315 317 316 315 315 317 320 321 321 323 322 323 326 328 326 326 326 323 322 321 323 326 322 320 321 321 325 321 321 322 321 321 319 319 322 321 319 315 313 314 313 314 316 321 323 325 327 326 325 323 322 324 324 325 324 326 326 326 328 329 329 329 330 330 331 331
323 323 323 322 321 320 321 320 318 318 317 319 320 319 316 318 318 315 316 311 312 314 314 317 318 316 314 316 317 316 318 319 325 327 326 326 324 322 322 321 322 322 321 322 324 322 320 320 320 321 320 322 322 322 319 315 314 313 313 311 308 308 312 314 318 324 326 323 321 323 324 324 326 326 326 325 325 324 327 327 327 327 327 329 330
322 322 322 321 321 321 320 319 317 316 316 319 319 317 318 317 317 315 313 312 312 318 315 314 314 315 315 315 315 314 315 316 318 324 326 325 323 322 321 321 320 323 325 324 323 321 318 319 318 318 321 318 320 321 321 318 315 314 310 308 308 302 302 308 309 317 323 323 320 323 324 325 325 325 324 323 325 326 327 327 329 327 326 327 328
322 322 321 321 321 320 320 319 317 316 317 321 317 318 317 315 315 315 316 315 315 313 313 313 313 318 314 314 313 313 315 316 316 319 324 320 319 320 321 321 322 323 324 323 322 322 321 319 319 319 318 319 318 321 324 324 321 317 314 310 305 303 303 308 310 314 317 320 321 322 328 324 325 323 323 324 324 324 325 328 327 327 326 327 327
322 322 322 321 321 320 320 318 317 317 318 316 316 317 317 314 313 313 311 310 311 310 309 310 311 311 311 312 312 313 313 312 312 314 316 316 314 317 319 321 321 321 320 319 322 322 320 318 317 318 316 316 319 321 321 323 321 320 317 315 310 307 307 314 311 307 311 318 318 321 321 324 321 322 322 323 324 325 326 325 326 326 326 326 327
323 323 322 321 320 321 321 319 319 318 317 316 316 318 314 314 314 313 312 312 311 308 308 309 310 310 311 311 310 310 310 311 311 311 313 315 314 315 317 319 319 318 321 317 316 316 318 319 318 316 316 318 319 318 320 319 318 320 321 320 321 316 313 310 307 304 306 309 312 316 320 322 323 322 322 324 324 325 326 329 329 328 327 326 327
324 323 322 321 320 320 320 319 319 319 317 316 315 317 315 312 312 311 312 310 311 310 311 311 310 312 310 309 309 308 309 310 311 312 313 315 314 314 316 317 317 317 317 314 313 314 316 316 316 316 317 316 317 319 319 320 316 316 320 316 318 319 316 316 313 308 304 305 308 311 312 312 316 318 319 319 321 321 322 323 327 328 328 328 327
324 324 323 321 320 320 320 319 319 317 315 315 315 314 315 313 313 312 311 311 310 311 313 313 311 310 308 307 307 307 308 309 309 311 311 313 316 313 314 315 314 314 317 314 313 313 313 313 313 314 314 314 315 315 319 318 315 316 318 318 318 316 314 313 313 310 305 302 304 304 305 306 307 308 312 313 314 318 321 321 323 324 322 322 326
324 324 324 321 319 319 319 318 317 315 314 313 314 313 313 314 313 312 311 311 312 311 310 310 308 307 307 305 306 307 307 308 308 308 310 311 312 314 313 313 313 314 314 311 311 311 310 310 310 311 311 310 309 312 314 311 314 316 318 317 316 313 307 305 305 307 308 305 304 303 303 301 301 303 306 307 307 310 317 319 317 314 312 312 315
321 323 323 322 319 318 317 316 316 315 314 312 311 311 312 313 313 312 313 313 312 312 310 308 308 306 306 305 305 305 306 306 309 308 309 310 311 313 312 312 313 316 312 310 309 309 308 308 308 308 308 307 306 307 308 308 308 309 310 312 310 308 304 303 303 304 303 300 300 301 300 303 302 301 304 306 307 307 309 310 310 308 308 309 311
Wind_Speed
4 9 8 12 13 13 13 13 13 12 13 14 15 16 16 17 18 18 20 20 20 20 22 22 22 21 21 20 20 19 19 18 17 17 17 16 16 16 16 17 16 16 16 17 17 16 16 15 15 14 14 14 14 15 15 16 17 16 15 16 16 16 14 14 16 16 16 16 15 15 15 16 16 15 16 15 16 16 16 16 13 9 6 11 16
7 7 8 10 14 13 13 14 13 13 12 15 16 16 16 16 17 17 18 20 19 19 19 20 22 22 22 20 19 19 19 19 18 18 17 16 16 16 16 16 16 16 16 16 16 16 15 15 15 14 14 14 14 15 16 16 16 16 16 16 16 15 15 14 14 15 15 16 16 15 15 15 15 15 15 15 15 15 15 16 16 7 6 14 15
7 5 5 9 14 13 12 13 13 13 12 14 16 16 16 16 17 17 17 18 18 18 18 18 18 19 20 19 18 18 17 18 18 17 16 16 16 16 16 16 16 16 16 16 16 16 15 15 15 15 14 15 15 15 16 17 17 17 16 16 15 15 14 13 13 14 14 15 14 14 15 16 15 15 15 15 15 15 15 15 15 12 8 14 13
9 4 2 7 12 10 10 12 12 12 12 13 15 15 15 15 16 16 17 17 18 17 17 17 17 17 17 17 17 17 17 17 16 16 15 15 15 16 16 15 16 16 16 15 15 15 15 14 14 14 14 14 15 16 16 16 17 15 16 16 15 15 14 13 13 13 13 13 12 9 5 5 9 15 15 14 15 15 14 15 15 15 15 13 15
10 6 5 4 7 9 9 11 11 12 11 13 14 15 16 16 16 16 16 16 16 16 16 16 16 16 17 17 17 17 16 16 16 16 15 14 14 15 15 15 15 16 17 16 14 14 14 14 14 13 13 14 14 15 16 16 16 16 16 15 15 13 12 12 12 12 12 11 10 6 3 4 5 13 14 15 15 15 14 15 15 15 14 15 15
13 10 9 8 7 9 11 9 11 12 10 12 13 14 15 16 16 16 16 15 15 16 16 16 17 17 17 17 16 16 16 16 16 16 15 15 14 14 13 15 15 16 15 14 13 13 14 13 13 13 13 13 14 15 16 15 15 16 15 14 13 13 12 12 11 11 11 10 8 3 3 3 4 6 13 13 13 12 13 13 14 14 14 15 14
9 7 12 12 9 10 12 12 13 12 11 11 12 13 14 16 16 16 16 16 15 16 16 16 16 16 17 16 16 15 15 15 15 15 15 14 15 14 12 12 14 14 13 13 13 14 13 12 13 14 13 13 14 15 15 14 14 14 13 13 14 14 14 12 9 10 9 5 3 3 3 4 4 3 15 15 14 14 14 13 13 13 13 13 14
5 6 7 11 11 12 14 14 14 13 12 11 11 12 14 15 16 16 16 16 15 15 15 15 16 16 16 16 15 15 15 15 14 13 13 14 14 13 12 13 13 12 13 15 13 13 14 13 12 14 14 12 13 13 14 13 13 12 12 10 9 9 6 6 9 9 8 3 2 2 2 2 2 3 12 13 14 14 14 12 12 12 13 14 13
8 7 6 8 10 17 14 14 15 15 13 11 10 11 13 14 15 16 16 16 15 15 16 16 16 16 16 15 15 15 15 15 14 13 11 11 11 10 9 9 9 9 13 14 13 13 12 10 10 11 13 13 12 13 12 12 11 10 9 9 8 6 4 2 4 6 4 2 2 2 2 2 3 3 11 13 13 13 12 11 10 13 13 13 13
9 7 7 7 11 15 13 12 13 15 14 13 11 11 12 13 14 15 16 16 16 15 15 16 16 15 15 15 15 15 14 14 14 13 12 12 12 11 10 10 11 13 15 13 13 12 11 11 9 8 10 12 12 11 11 10 9 9 8 7 6 5 2 3 2 4 2 2 2 2 2 4 2 5 10 12 12 13 13 11 8 9 9 12 13
8 7 5 4 10 18 15 13 12 13 14 14 12 12 12 13 13 14 14 16 16 15 15 15 15 15 15 15 15 14 14 14 13 13 13 12 11 11 11 12 13 12 13 12 11 11 11 10 9 8 9 9 9 10 10 10 9 8 7 6 5 3 4 4 3 3 3 3 3 1 3 6 3 4 12 13 13 13 13 13 12 11 12 12 13
9 7 6 7 13 13 14 15 13 12 12 13 13 12 12 12 12 13 14 15 15 15 14 14 13 14 15 15 14 14 14 13 13 13 13 12 12 12 12 12 13 13 13 12 12 11 11 10 9 6 6 8 8 8 8 9 8 8 7 6 4 1 1 6 5 5 4 4 3 1 2 3 3 7 13 14 13 12 12 12 13 13 12 12 12
10 8 6 6 6 11 11 12 14 13 12 12 13 12 12 12 12 12 12 12 12 13 13 13 12 12 13 14 14 13 13 13 12 12 12 12 12 12 12 12 12 12 12 12 11 11 10 9 8 6 4 5 6 7 7 8 8 8 7 6 5 6 7 8 6 7 4 4 2 2 2 1 3 11 12 13 14 13 12 12 12 12 12 13 13
12 10 8 7 6 10 11 9 11 13 12 10 11 11 11 10 11 12 12 11 11 12 11 11 11 11 11 12 13 12 12 12 12 12 12 11 11 11 12 12 12 12 11 11 11 10 9 9 7 6 4 4 6 6 6 7 7 7 7 6 6 7 7 7 6 5 5 3 3 3 2 1 3 11 12 13 13 12 12 12 12 11 12 12 13
11 10 10 8 6 8 12 8 10 11 10 9 9 9 10 10 10 11 11 11 12 11 11 11 10 10 12 12 11 12 12 11 11 12 12 11 11 11 11 11 11 11 11 10 10 10 9 8 7 6 4 5 5 6 6 7 7 7 7 7 7 7 6 4 4 4 5 4 3 3 1 2 7 9 12 13 13 13 11 11 11 11 11 11 12
12 8 7 7 6 4 5 10 11 11 11 9 9 9 9 9 10 11 11 11 11 10 11 10 9 10 10 10 10 10 11 10 10 11 11 11 10 10 11 11 11 10 10 10 9 9 8 7 6 5 3 4 5 6 6 7 8 8 7 7 6 6 6 5 5 4 5 4 3 2 2 2 8 9 11 12 13 13 11 12 12 11 11 11 11
12 12 11 9 7 5 5 5 8 13 10 9 10 10 9 10 11 11 11 12 11 12 11 10 9 9 10 10 10 9 9 9 10 10 10 10 9 9 10 10 10 10 10 9 9 8 8 7 6 4 3 3 5 5 5 7 8 7 6 6 6 5 8 7 5 4 5 4 3 3 3 3 8 9 11 12 12 12 11 11 11 11 10 10 11
9 9 10 9 6 5 5 4 8 7 7 10 10 9 9 9 10 10 11 12 11 11 11 9 9 9 10 10 9 9 9 8 8 9 9 9 8 9 9 10 10 10 9 9 9 8 7 6 5 3 2 3 4 5 5 6 6 6 5 5 6 6 10 9 4 4 4 4 4 3 3 4 8 9 11 12 12 12 11 11 10 10 10 10 10
6 6 8 11 9 5 5 5 5 6 6 5 5 8 11 12 10 11 11 11 11 11 11 9 9 9 9 9 9 10 9 9 8 8 8 8 9 8 8 9 9 9 9 8 8 7 6 5 4 2 1 3 4 5 5 6 6 6 6 6 6 5 11 7 4 4 3 3 3 2 2 6 7 10 11 12 12 12 11 10 10 10 10 9 10
5 5 5 5 5 7 6 6 6 7 6 5 6 6 10 12 12 12 12 13 12 12 10 9 10 9 9 10 10 7 7 6 10 6 8 8 7 4 8 8 8 8 8 8 8 7 6 5 3 2 1 3 4 5 5 5 6 7 6 6 6 5 6 5 4 4 4 3 2 3 4 7 8 10 10 11 11 11 11 10 9 9 9 9 9
4 5 6 6 5 6 5 4 6 8 8 7 6 6 8 12 11 13 14 13 11 12 10 10 9 9 8 7 7 4 3 3 4 3 7 3 6 7 8 8 8 7 7 7 7 7 6 5 3 2 0 3 4 6 6 6 7 7 7 6 6 3 5 5 5 4 3 3 2 2 5 8 10 10 10 10 10 11 10 10 9 8 9 8 9
7 7 6 6 6 6 6 5 5 6 6 6 5 5 6 9 5 6 6 9 10 10 8 5 7 4 8 5 4 3 3 3 3 6 3 3 4 7 8 8 8 7 6 6 6 5 5 5 3 2 0 2 3 2 3 5 6 7 6 6 4 3 4 4 5 5 3 3 2 3 7 8 9 10 10 10 10 10 10 9 9 8 8 8 8
7 6 7 8 7 7 7 7 6 6 6 6 5 5 6 5 5 5 5 8 7 7 4 4 3 3 3 3 3 4 3 3 2 4 4 5 4 7 7 7 7 7 6 5 5 4 3 4 3 2 1 1 1 2 2 3 3 6 5 4 2 3 4 4 4 4 4 3 3 5 8 7 8 9 10 10 10 10 9 9 8 8 7 9 8
7 8 9 7 9 8 9 9 9 9 8 6 5 5 5 5 4 4 4 4 4 4 3 3 3 3 3 3 4 3 2 3 6 9 7 4 3 7 7 7 7 6 7 4 5 4 4 4 4 3 0 1 0 1 2 3 2 3 2 2 2 2 4 4 5 4 5 4 4 7 9 8 8 9 9 10 10 10 9 9 8 8 8 7 7
7 7 7 8 9 9 8 9 9 9 9 7 7 5 5 4 4 4 4 4 4 4 4 3 3 3 3 2 2 2 2 1 1 2 4 3 2 2 2 2 2 1 3 1 1 1 1 0 0 0 0 1 1 2 2 3 3 2 1 1 1 2 3 3 4 4 5 4 4 8 10 8 8 9 9 9 9 9 9 8 8 7 7 6 6
5 8 9 7 8 9 9 7 7 7 7 6 6 7 7 5 5 5 5 4 4 4 3 4 4 4 3 3 2 3 3 2 2 3 4 3 3 2 2 2 2 2 2 2 1 1 0 1 1 2 2 1 1 2 1 2 3 1 1 1 0 2 5 3 4 4 5 4 4 10 8 8 8 10 9 9 9 9 8 8 8 7 7 6 7
9 8 6 6 6 7 8 7 7 6 6 6 6 6 5 5 5 5 6 4 4 4 4 4 4 4 3 3 4 3 4 3 3 3 3 3 3 2 2 1 2 2 1 3 2 2 2 2 1 2 1 2 2 2 2 3 2 2 1 1 1 1 4 5 5 5 5 4 4 11 8 9 9 10 10 9 9 8 8 8 8 7 6 5 5
8 7 8 8 8 8 8 8 6 6 6 6 6 6 5 5 6 7 5 5 5 4 4 4 4 4 3 3 3 3 4 3 3 3 3 3 3 2 2 2 2 2 2 2 3 2 1 1 1 2 2 2 3 3 2 2 3 2 0 2 2 2 3 5 5 4 4 5 4 8 9 9 9 9 10 9 9 9 8 8 8 7 7 6 6
9 9 8 7 6 6 8 8 7 7 6 6 5 5 5 5 4 5 5 6 4 4 4 4 4 3 3 4 3 4 2 3 3 2 2 2 3 2 3 2 2 3 2 4 3 3 2 2 2 3 2 3 3 4 3 3 3 2 2 1 2 3 3 3 4 4 3 3 5 6 10 9 9 9 10 9 9 9 8 8 7 8 7 7 6
10 6 5 6 4 6 10 9 8 7 6 6 5 5 5 5 4 4 5 6 4 4 4 4 4 4 4 4 4 4 4 4 3 3 4 2 2 2 2 3 3 4 4 5 3 2 2 1 2 2 3 3 3 3 2 3 4 4 3 2 2 4 4 5 4 4 3 3 3 3 9 9 9 8 8 9 10 9 9 8 8 7 8 8 7
5 7 6 5 5 7 8 8 7 7 6 6 5 5 5 5 5 5 5 5 5 5 4 4 4 4 4 3 3 3 4 4 3 3 2 3 2 2 2 2 4 4 1 1 3 1 1 1 2 3 4 3 5 2 2 3 4 4 1 3 1 3 2 2 3 2 3 3 3 3 4 9 8 8 8 7 8 9 9 8 8 7 7 8 8
4 5 3 2 4 5 7 7 8 7 6 5 5 6 6 6 6 5 5 5 6 5 5 4 5 4 3 3 3 0 2 3 2 1 2 3 3 2 1 3 3 2 2 1 2 2 0 2 2 2 3 2 3 2 1 1 2 3 2 2 1 3 4 4 4 3 2 2 2 1 2 3 7 7 7 6 6 7 9 9 9 8 8 8 8
1 2 2 3 3 5 6 6 7 7 7 7 6 6 5 5 6 5 5 5 4 5 5 4 4 3 3 5 3 3 2 4 5 5 3 4 3 2 2 1 1 2 3 3 1 1 2 3 2 2 3 2 1 1 1 2 4 3 3 2 2 2 3 4 4 3 3 3 2 1 1 0 1 4 5 6 6 5 7 8 9 8 8 8 8
1 1 1 3 2 3 5 5 6 7 6 6 6 5 5 4 4 4 4 4 3 4 4 3 3 3 3 6 5 3 2 4 6 4 4 3 3 3 3 2 1 1 2 2 1 2 3 3 3 1 2 3 2 1 2 3 4 3 4 2 4 3 2 3 3 3 2 2 3 2 1 1 1 1 2 5 6 5 6 6 8 8 8 8 8
3 3 2 3 2 5 5 5 5 6 5 6 5 5 3 4 4 4 4 4 3 3 4 3 3 2 2 5 6 5 4 3 3 5 3 4 4 3 3 2 2 3 2 2 2 1 3 4 4 1 2 3 2 2 3 3 3 5 3 3 4 3 4 3 2 3 3 3 3 3 3 2 2 1 1 2 4 6 6 5 7 7 8 8 8
5 3 2 3 2 4 5 6 5 5 5 5 4 4 4 4 4 4 4 3 3 2 2 2 2 1 1 2 4 3 2 4 5 4 1 2 3 3 3 1 4 3 3 2 3 2 2 3 3 1 3 3 4 3 3 4 4 5 3 4 3 3 4 4 4 2 1 3 3 3 4 4 3 3 3 1 2 3 5 5 5 5 7 8 8
7 10 9 5 3 4 5 7 7 6 4 4 4 3 4 4 4 4 4 3 3 2 2 2 2 2 1 1 5 6 5 4 3 2 3 2 1 1 0 1 4 3 2 1 3 3 2 2 3 4 1 3 4 5 4 4 4 4 4 3 3 3 5 4 4 4 3 1 1 2 3 3 3 5 3 3 2 1 3 5 5 4 5 6 6
4 5 6 9 7 6 6 6 5 4 4 5 4 4 4 4 4 4 4 4 3 2 2 2 2 2 2 2 4 5 4 4 3 3 1 2 1 1 0 2 4 4 3 1 2 1 2 1 2 3 3 2 4 6 5 3 4 4 4 4 3 4 3 4 4 4 5 3 2 0 1 1 2 3 3 3 3 2 2 3 4 5 4 5 5
3 4 6 5 4 4 5 5 5 5 4 4 4 5 6 5 5 5 4 3 3 3 2 2 1 2 2 2 3 3 4 5 5 2 3 4 2 2 2 2 4 4 3 2 2 3 1 1 3 3 4 3 2 3 4 4 4 3 4 3 3 3 3 3 4 4 4 3 3 2 2 1 2 3 3 2 3 3 3 3 3 3 4 4 4
5 6 6 6 5 4 4 5 5 6 5 5 6 6 5 5 5 4 4 3 2 2 1 1 1 1 1 3 4 4 4 5 6 3 2 4 3 2 1 2 4 4 4 3 3 4 4 4 3 4 4 4 4 2 1 4 3 5 3 3 3 3 3 3 3 3 2 3 3 2 2 3 6 5 3 3 4 3 3 3 3 4 4 6 7
5 7 8 7 7 8 8 7 5 6 7 7 6 7 6 4 4 4 4 1 2 1 1 1 1 1 1 3 3 4 4 5 7 7 6 4 2 2 1 1 2 2 3 3 3 2 2 3 4 1 3 4 2 1 2 1 4 2 1 3 3 2 4 3 2 1 2 2 2 1 1 5 4 2 1 2 3 3 4 5 5 5 5 5 6
5 7 9 9 7 7 8 8 5 5 6 7 7 5 3 4 5 4 3 2 2 2 1 1 1 1 1 1 2 3 3 3 4 6 5 5 4 3 2 2 2 2 1 1 1 1 1 2 3 3 2 3 1 1 3 1 2 2 1 0 2 2 2 4 3 3 2 1 2 1 2 2 3 2 3 2 2 3 3 4 4 4 5 5 5
8 8 7 8 7 7 6 7 6 6 5 5 6 6 3 3 4 3 4 3 2 0 1 1 1 2 2 1 1 2 3 3 4 5 5 5 5 4 4 3 2 1 1 1 1 1 1 2 2 5 1 2 2 1 3 0 3 2 2 3 2 1 2 3 3 4 3 2 1 1 0 1 1 1 1 3 3 2 1 1 1 2 3 3 4
6 5 6 9 7 7 6 6 6 5 6 4 5 5 6 6 6 5 4 4 3 3 4 3 3 4 4 3 3 2 3 3 3 4 4 4 4 3 3 3 2 1 3 4 2 2 1 3 1 1 5 2 1 1 2 3 3 3 1 1 0 1 1 1 2 1 2 1 1 1 0 0 0 1 2 2 1 1 0 1 1 1 2 2 3
7 8 8 8 7 8 8 8 7 6 5 5 7 8 8 7 7 6 6 6 5 4 3 3 2 2 2 4 3 2 3 3 3 3 4 5 4 4 4 4 3 3 4 3 3 4 3 2 6 5 4 6 3 2 2 3 3 1 6 3 2 1 1 0 2 0 2 1 2 2 1 2 1 0 0 1 2 2 2 2 2 2 1 1 1
9 8 8 8 8 7 7 6 6 5 6 5 7 7 7 8 7 8 7 5 6 5 3 3 2 3 2 0 3 3 3 4 3 3 3 3 3 4 5 5 4 4 4 3 3 2 2 1 0 1 2 1 4 3 2 3 3 4 3 2 3 2 2 1 0 0 2 1 2 2 1 1 1 1 1 1 1 2 2 2 2 2 3 4 5
8 6 6 7 8 8 8 8 8 6 6 6 6 7 6 6 6 6 6 7 8 2 1 0 2 2 2 4 3 4 4 5 4 4 4 3 3 4 5 5 5 4 3 3 3 2 2 1 1 3 2 4 4 3 4 2 3 4 4 3 3 2 3 3 1 1 2 2 2 2 1 2 2 1 2 1 1 1 2 3 2 0 1 3 4
8 6 7 7 9 9 8 8 6 6 6 7 6 7 7 4 4 4 3 5 5 5 5 4 2 2 5 3 4 4 4 4 4 4 4 4 4 5 6 6 6 4 4 4 3 2 4 2 3 3 3 3 4 5 4 2 3 1 3 3 3 3 3 4 3 2 3 2 1 3 1 3 4 3 2 3 3 3 3 2 1 2 3 3 0
8 9 8 8 7 8 8 6 6 6 6 7 7 5 6 6 6 5 3 1 3 4 3 4 4 2 5 3 4 4 4 4 3 4 3 4 4 6 6 6 6 4 4 5 3 3 4 4 3 4 4 4 3 3 4 3 2 2 3 2 4 3 3 2 2 2 2 2 0 1 3 4 3 4 6 6 6 5 3 3 2 1 1 2 3
7 6 7 6 6 6 6 6 6 7 5 4 5 5 5 7 6 5 6 4 4 3 3 4 3 3 4 3 3 4 4 5 4 3 4 3 4 5 6 7 6 5 4 5 4 4 4 4 3 4 4 5 3 4 5 4 3 3 2 3 2 2 3 2 3 3 3 2 3 1 0 2 4 3 5 7 6 6 6 5 6 7 7 6 5
5 6 7 7 5 3 8 12 10 8 6 4 3 4 7 7 8 7 8 8 6 6 5 3 3 3 4 2 3 3 3 3 3 3 3 3 4 4 5 5 4 4 5 4 4 4 4 4 4 4 5 5 4 5 6 4 4 4 3 3 4 3 2 1 1 0 1 1 2 1 1 0 0 1 4 3 5 6 7 6 6 6 6 6 6
Wind_Direction
132 133 138 141 142 143 140 140 137 131 130 127 121 119 116 113 110 108 109 108 108 107 109 110 111 113 114 115 116 116 116 116 114 114 113 114 113 113 111 109 108 109 109 107 105 108 110 110 112 113 113 113 111 110 108 108 106 104 103 100 97 95 94 94 98 100 93 89 90 90 91 91 88 92 91 89 86 86 83 81 77 74 64 72 73
129 133 141 144 143 146 144 140 136 132 129 125 121 120 117 114 111 109 107 109 109 110 110 111 114 116 117 117 118 119 118 118 117 116 116 115 114 114 113 110 110 111 110 109 109 109 107 108 108 108 109 111 112 111 110 109 107 106 104 103 99 96 94 96 103 98 96 95 92 89 87 92 97 95 93 90 90 88 86 84 81 71 71 73 72
92 109 138 142 142 144 143 139 134 129 129 126 123 120 117 113 111 109 108 108 109 112 112 111 112 114 116 116 117 116 116 116 116 116 116 115 114 114 112 112 112 111 110 110 110 110 109 108 109 108 108 110 111 111 111 111 110 108 106 104 101 100 101 101 100 100 101 101 100 99 96 92 88 90 93 94 91 89 86 84 84 82 78 74 74
96 63 53 128 129 131 131 132 130 129 129 125 120 118 117 115 113 111 110 110 110 111 111 111 111 112 112 112 112 112 112 113 113 112 110 110 112 115 116 116 116 114 112 112 112 112 111 110 108 110 112 112 111 110 112 110 109 109 108 106 105 103 102 101 97 96 95 92 86 77 71 81 95 97 95 95 92 91 92 93 89 86 86 86 76
92 97 86 104 125 124 127 129 129 129 124 122 122 123 123 119 115 111 110 109 108 110 111 112 112 112 111 111 111 111 112 112 111 108 105 105 109 114 115 116 114 114 115 114 114 113 109 110 112 112 113 114 112 113 114 112 111 111 111 110 108 108 106 101 98 97 96 93 92 85 90 97 90 95 100 94 91 89 89 88 88 87 87 86 85
135 136 126 124 124 135 131 132 129 126 125 130 129 127 124 121 118 114 112 110 110 112 113 113 112 112 111 112 112 113 113 112 111 112 113 114 112 112 119 119 116 116 114 114 118 118 118 116 113 113 112 113 114 116 115 110 109 112 115 115 112 113 107 99 98 100 100 93 83 79 73 69 80 92 107 105 95 95 95 89 83 82 82 82 80
112 123 131 133 137 136 137 140 134 134 139 134 131 129 128 124 120 117 116 115 114 115 115 114 114 113 113 112 113 114 113 114 115 118 119 119 121 124 124 125 119 118 118 116 116 117 112 113 116 110 111 114 115 115 116 114 112 111 116 121 119 120 111 89 95 103 96 77 69 61 65 86 104 124 93 98 101 96 87 91 95 86 81 83 83
104 119 125 130 132 140 145 145 142 138 140 137 133 132 129 125 121 120 119 118 116 116 116 115 115 115 114 113 113 113 114 114 116 118 122 128 132 134 135 127 122 119 113 112 116 112 109 110 111 108 108 112 116 114 110 108 105 104 112 114 115 124 107 54 100 108 109 93 66 56 58 45 58 101 106 101 101 99 94 90 88 88 86 80 76
116 107 112 122 131 142 147 146 144 141 139 139 139 136 133 127 123 122 122 120 119 119 119 119 118 118 116 116 114 113 113 114 115 112 106 106 106 100 93 92 90 95 110 117 113 109 111 109 106 107 114 113 113 109 104 104 101 99 99 105 110 105 107 79 116 117 115 100 80 79 76 73 78 87 103 102 100 97 93 84 88 92 89 83 76
119 112 126 136 137 133 136 140 143 143 143 145 144 142 137 130 126 126 126 124 123 123 124 123 122 120 119 118 118 117 116 116 116 114 108 108 107 108 106 99 100 106 114 120 120 119 113 107 106 108 114 117 119 115 109 106 102 100 105 101 99 103 109 223 162 125 119 117 102 93 105 91 59 98 113 107 108 108 108 109 107 90 95 91 86
108 108 103 108 133 132 137 138 142 146 146 146 147 145 142 136 132 130 127 126 125 125 125 124 122 121 121 120 120 119 119 120 120 119 117 116 116 113 109 103 101 106 119 121 116 116 116 112 111 112 113 115 114 114 114 114 110 105 104 102 95 115 207 228 177 125 136 125 123 167 126 103 87 106 117 112 108 111 115 110 101 100 91 88 85
105 104 110 125 126 124 136 139 142 141 152 146 148 149 147 142 135 131 127 126 125 125 124 123 122 122 123 123 122 123 123 124 123 123 121 120 119 116 112 108 106 107 108 113 117 115 113 115 118 119 121 122 121 116 116 107 104 99 94 85 73 20 185 158 126 145 145 131 144 157 77 85 121 121 115 114 112 107 103 105 103 97 94 92 89
106 99 92 94 106 125 129 133 139 139 153 150 149 150 147 144 137 132 128 125 126 125 125 123 122 123 124 124 125 124 125 124 125 125 124 124 122 119 116 114 112 112 114 116 118 118 119 121 126 131 136 120 110 100 91 87 90 89 83 73 53 34 108 123 130 136 132 128 121 100 97 111 124 122 122 120 117 116 113 108 105 105 102 97 91
110 108 107 99 100 124 111 131 136 138 151 148 148 148 146 143 140 132 129 127 126 125 122 123 125 126 124 124 126 125 125 125 126 127 127 125 124 121 120 119 118 119 120 122 122 121 122 125 130 134 138 113 90 80 76 75 76 77 75 66 50 42 92 109 114 120 118 112 112 110 103 118 118 124 123 120 120 117 115 113 110 109 106 101 94
106 111 111 100 90 120 134 142 134 137 139 145 144 146 147 144 137 131 127 127 126 124 125 126 127 128 128 127 125 125 127 129 129 129 128 128 127 127 128 125 125 124 124 122 122 123 126 127 129 127 122 91 80 73 68 68 71 70 70 62 56 52 85 103 104 109 113 117 121 121 132 136 135 131 126 122 119 117 116 112 112 111 105 96 95
94 71 69 93 106 109 129 145 142 138 141 146 150 148 147 141 134 131 127 127 126 127 127 126 130 131 129 126 126 129 132 132 131 129 129 129 130 132 132 135 131 128 126 125 125 125 127 128 125 123 113 79 71 70 72 75 76 72 67 63 58 53 112 115 111 109 115 119 123 129 173 155 141 137 129 125 123 120 123 119 116 115 111 105 101
120 131 127 124 130 129 131 145 137 141 143 151 153 146 143 141 138 133 131 131 133 133 133 136 136 134 131 130 129 130 132 135 132 130 129 130 131 133 134 134 134 132 129 127 127 128 129 131 128 126 102 64 59 61 66 74 77 80 75 69 65 63 128 130 120 125 128 136 145 157 183 157 144 138 131 127 123 121 124 124 122 117 116 116 110
119 131 130 120 116 132 135 150 148 150 154 153 147 147 146 143 136 134 134 135 137 138 137 137 139 138 135 133 129 129 133 135 135 133 132 132 132 133 135 138 138 138 135 131 132 133 134 136 139 142 113 72 60 52 46 54 68 77 78 74 69 71 137 129 128 136 139 148 146 167 171 168 148 142 138 133 130 129 129 127 124 119 121 120 109
108 114 122 133 140 145 150 139 138 140 138 132 151 153 154 146 138 141 139 139 139 139 140 139 143 139 132 129 132 135 139 138 136 134 130 132 136 131 137 140 141 141 138 139 138 139 140 140 145 156 89 55 49 50 44 45 45 51 53 61 68 78 130 129 137 140 142 140 154 147 183 161 145 147 142 138 136 133 128 128 129 133 133 122 115
91 104 110 103 133 142 143 146 140 140 145 151 152 161 156 148 148 143 144 143 142 143 138 144 146 142 137 137 140 141 142 143 143 138 136 136 127 124 140 144 143 144 146 146 149 147 147 149 152 146 9 27 26 31 35 38 48 50 53 58 58 91 124 134 139 140 138 144 136 164 197 159 158 153 145 141 139 132 130 131 130 129 125 125 119
109 128 130 130 138 136 136 136 150 147 153 159 157 157 162 148 151 151 149 145 145 144 147 148 146 147 145 139 131 115 115 128 128 130 141 117 129 142 146 146 151 151 155 157 154 157 156 153 149 161 356 12 15 26 16 13 29 39 55 58 48 66 138 138 137 132 131 143 141 188 192 163 163 157 149 147 142 138 134 129 138 135 131 128 125
153 152 133 128 131 139 142 149 151 153 156 152 146 151 157 145 145 148 145 145 147 152 151 153 151 141 149 128 119 122 106 104 131 143 112 131 136 149 151 153 157 162 163 161 163 164 162 162 159 181 267 21 31 40 6 2 22 37 50 55 43 60 123 126 129 133 134 134 146 210 184 173 168 161 155 152 147 143 140 143 140 135 133 131 129
156 159 148 152 152 153 155 159 155 148 154 152 155 155 145 139 136 135 142 148 157 147 146 145 123 132 109 118 115 104 112 120 128 138 135 132 146 154 157 161 163 167 168 170 171 179 177 167 182 189 247 47 58 23 7 1 11 39 44 56 38 63 116 117 123 133 139 151 158 199 177 184 175 167 162 157 153 150 149 146 142 147 140 136 140
172 167 160 162 163 167 169 162 163 163 164 163 155 147 141 135 133 133 137 137 123 124 123 117 118 103 103 98 99 113 111 146 169 161 151 135 155 158 160 164 169 166 174 168 187 191 196 192 191 204 210 22 41 7 348 343 4 57 32 78 91 64 137 141 141 140 152 170 172 197 179 185 180 174 168 165 158 157 156 151 150 146 148 142 143
178 162 171 171 173 172 164 168 169 164 163 159 150 143 125 116 111 118 118 114 115 112 116 113 110 95 85 91 104 109 111 96 28 68 95 114 106 123 139 125 106 129 131 107 92 252 161 112 318 31 221 278 335 320 347 330 333 57 7 43 84 86 143 141 142 153 168 176 179 193 181 183 178 177 174 170 166 165 164 154 152 149 145 150 154
175 181 180 169 178 173 169 169 164 161 157 150 145 147 138 134 134 142 133 123 123 120 117 120 115 108 107 116 101 107 108 88 72 104 117 129 130 121 118 105 111 132 116 130 168 252 263 188 218 232 262 273 271 281 286 292 303 52 62 51 349 103 141 150 150 166 183 176 187 190 180 179 180 180 174 174 174 172 171 166 160 159 155 167 168
188 185 163 181 177 178 166 162 162 156 146 141 142 143 145 147 148 151 143 140 127 129 133 129 133 132 138 137 129 127 115 103 100 113 128 133 139 134 145 149 152 171 168 158 193 221 213 212 229 256 299 301 293 293 293 285 276 310 115 159 229 136 155 159 167 178 176 180 197 189 180 178 183 181 178 179 180 180 182 179 170 166 162 166 184
181 176 181 182 183 183 159 156 153 153 150 151 150 145 144 146 153 159 146 152 141 142 146 148 147 148 145 141 124 132 133 121 121 122 140 133 152 156 146 160 179 209 191 181 190 213 225 230 234 274 280 275 279 285 290 292 295 287 179 173 181 180 171 175 175 182 176 191 194 191 181 180 182 183 182 181 181 184 188 180 180 175 168 182 181
188 188 188 186 178 167 151 155 159 159 155 152 150 141 143 139 153 152 152 163 139 147 152 151 159 156 140 135 128 128 118 135 133 122 127 144 144 150 167 182 196 224 203 220 199 200 204 209 229 252 259 273 281 287 304 300 305 292 284 132 161 177 185 175 176 182 195 190 195 198 184 182 185 189 185 185 184 182 185 189 196 181 183 185 189
196 176 176 182 185 164 158 159 162 160 157 153 148 149 155 151 158 155 160 161 153 146 151 162 169 156 152 147 144 145 157 156 139 131 141 158 162 140 154 181 197 216 211 220 213 182 210 232 273 270 274 272 281 278 311 315 336 340 24 329 157 175 184 175 174 187 190 185 201 215 190 186 190 198 189 188 188 186 184 193 199 190 186 186 193
166 173 178 193 189 168 161 157 153 158 155 157 155 148 152 161 161 155 173 160 156 151 159 166 174 169 167 151 141 151 156 154 127 138 136 150 164 163 177 197 214 218 239 333 25 30 21 291 261 251 250 260 261 319 0 360 344 349 347 280 45 143 174 155 144 161 185 190 198 205 202 194 198 201 190 194 201 197 187 191 195 196 192 192 197
176 186 176 188 192 160 149 154 156 155 157 150 152 151 164 166 162 159 170 155 154 156 161 167 181 188 165 139 70 165 156 86 120 259 167 153 168 165 220 223 253 11 32 10 36 28 301 246 226 231 245 260 301 7 34 37 350 27 31 25 17 150 157 152 148 154 190 194 199 230 224 196 202 198 196 199 213 214 190 192 192 197 202 201 203
75 125 162 190 184 140 146 158 152 155 153 157 157 162 160 162 159 166 159 154 155 150 158 176 177 183 170 97 145 214 144 158 175 197 193 173 160 148 195 245 19 34 28 41 61 355 348 342 324 241 214 193 274 352 61 65 67 43 49 36 63 103 151 136 137 154 187 187 173 196 325 306 234 217 206 208 220 225 205 203 197 194 200 207 206
78 89 158 200 179 137 143 152 153 153 153 150 153 159 161 148 134 128 136 126 139 150 155 155 162 171 170 129 160 208 179 175 180 186 166 155 134 165 200 194 146 94 73 72 52 2 3 351 339 310 209 167 202 121 100 77 63 58 49 43 63 63 108 118 144 157 167 181 171 163 191 244 219 255 260 236 224 226 219 225 204 200 200 206 208
131 142 208 236 208 143 154 161 161 147 146 158 157 153 139 127 122 116 113 129 124 131 127 130 147 171 172 147 163 181 205 170 196 156 149 142 148 183 226 205 108 90 80 44 69 23 360 352 336 42 70 84 87 112 121 110 100 72 46 39 56 59 70 76 93 155 172 173 160 173 172 199 201 193 266 299 274 244 234 234 216 211 207 212 205
156 142 179 243 232 163 165 161 155 149 154 156 148 139 129 117 115 124 108 103 98 84 101 114 122 116 148 174 136 124 62 50 7 13 34 128 148 182 236 83 86 91 81 59 51 22 346 358 350 29 99 95 107 72 92 109 97 92 68 56 42 47 66 62 56 45 161 162 175 176 182 189 203 194 203 224 274 295 270 249 247 221 215 223 217
181 177 170 191 216 181 167 158 164 162 148 138 124 114 116 116 112 99 98 92 86 79 75 91 97 107 82 79 69 87 105 117 99 68 320 335 114 169 314 52 80 93 85 67 63 14 328 16 9 13 42 129 117 115 83 90 95 86 84 79 57 58 56 63 63 66 65 71 201 194 197 204 200 209 194 191 220 269 308 292 252 245 241 231 235
194 163 163 173 190 180 170 160 158 146 139 145 139 117 103 95 83 85 87 78 83 82 61 72 94 101 98 80 93 121 122 110 133 139 136 312 279 146 79 67 91 99 105 102 112 96 315 58 72 23 29 75 122 121 117 102 97 88 74 79 78 69 60 66 73 70 77 69 29 353 294 288 253 236 203 190 204 213 244 282 289 276 259 238 235
172 173 169 168 171 165 148 144 139 132 129 125 110 96 90 77 75 77 76 75 76 79 95 85 95 103 107 109 102 118 133 134 140 172 124 192 207 150 158 106 98 103 111 125 172 186 196 80 117 83 57 49 81 109 135 124 100 81 75 55 65 70 55 58 65 69 77 92 81 63 73 348 270 252 230 214 193 200 212 236 250 251 260 258 238
160 174 164 156 160 140 124 116 128 126 117 117 117 108 99 106 106 88 74 82 91 114 83 112 104 113 132 131 140 146 154 156 146 151 187 202 162 141 148 75 100 119 133 147 179 181 159 126 126 125 108 65 47 39 87 112 84 81 80 61 54 85 74 48 62 87 73 63 74 80 73 66 45 329 260 222 197 197 197 212 225 239 236 238 233
148 163 158 160 165 157 141 140 142 135 139 142 144 140 124 103 75 90 109 102 116 94 89 153 161 194 176 157 161 171 178 168 168 161 183 181 139 110 95 75 87 133 153 176 199 190 167 149 142 111 123 104 39 4 326 77 110 69 26 68 56 55 96 100 81 45 46 36 37 52 79 92 100 250 312 214 198 195 204 210 218 218 224 230 237
165 163 164 162 158 146 144 140 140 145 159 156 150 138 126 136 132 141 125 101 85 80 56 307 225 261 233 186 179 188 185 179 171 157 158 161 152 154 150 135 155 175 177 162 183 180 156 143 135 53 5 113 123 316 292 94 26 144 147 314 1 349 60 82 51 39 43 30 6 7 6 71 136 175 162 130 152 184 205 222 224 229 228 231 234
165 169 163 143 141 139 138 142 148 150 154 144 136 129 95 92 105 132 124 104 77 92 110 15 60 78 54 62 125 171 178 179 182 167 156 158 161 159 157 130 139 148 120 123 243 201 199 198 174 144 86 73 101 16 334 23 157 166 129 80 345 50 336 25 16 27 18 353 0 53 16 21 19 31 51 92 94 88 107 235 242 259 275 265 257
165 160 161 148 145 143 144 145 153 150 143 134 115 96 99 88 81 102 75 96 120 71 65 40 39 54 43 25 34 47 87 98 144 160 145 142 146 148 108 112 124 144 138 170 189 205 189 205 107 184 137 98 97 12 4 3 110 123 35 41 197 113 8 5 0 315 340 298 33 35 32 70 27 19 19 53 37 32 196 155 138 246 254 279 284
177 171 163 157 155 157 159 155 158 153 135 117 114 115 104 91 97 79 86 77 57 53 58 32 15 80 82 40 19 36 77 69 64 95 120 126 126 133 128 125 131 135 143 154 181 204 222 181 190 176 179 150 143 138 56 41 48 64 139 110 44 29 216 282 10 309 348 17 334 338 170 158 188 241 343 292 326 313 333 333 319 335 342 347 346
183 179 168 161 154 159 155 154 146 138 123 118 125 122 129 133 132 132 133 123 128 121 118 137 70 55 67 334 42 36 70 82 70 81 88 107 117 131 128 126 115 95 103 132 152 168 189 168 292 134 94 71 134 132 113 29 64 64 87 138 168 174 178 194 49 191 307 210 287 300 324 31 89 115 293 323 343 313 304 292 308 336 347 4 1
186 172 166 161 161 161 165 163 156 135 115 121 125 120 123 144 153 154 152 152 143 165 177 217 113 58 57 63 50 37 35 80 75 91 103 98 94 93 107 104 97 97 110 111 115 147 133 114 118 93 139 121 116 120 141 145 72 49 46 50 69 59 128 128 166 89 23 314 10 356 342 350 353 28 13 1 303 299 282 278 295 297 0 12 8
172 168 169 170 168 172 170 164 145 126 124 131 133 140 140 136 118 117 137 147 149 144 136 117 79 97 74 46 56 38 35 45 78 74 90 103 106 98 106 108 98 99 97 99 120 122 95 65 88 110 97 98 120 133 140 148 136 130 47 43 48 55 59 75 115 153 162 157 312 324 296 2 13 37 358 326 313 283 277 272 326 4 9 32 148
174 174 178 177 175 175 168 147 130 117 123 137 135 141 133 136 142 140 119 85 106 110 114 89 95 84 87 36 59 52 47 43 52 86 75 95 94 104 105 104 104 107 117 120 110 106 112 119 101 86 91 73 92 124 125 150 102 148 122 56 57 43 41 48 83 73 117 104 292 348 319 326 16 15 7 359 354 344 327 357 29 0 16 304 308
179 172 167 166 174 172 153 121 73 54 58 82 119 123 130 139 143 156 141 129 108 82 81 91 80 82 95 58 61 64 56 65 50 62 82 75 99 101 103 104 109 112 101 101 98 87 84 88 98 112 109 92 70 107 134 144 128 115 114 143 94 51 31 19 27 66 48 75 153 161 326 39 30 319 356 18 11 19 35 43 44 38 30 13 8
175 176 170 169 163 112 71 63 67 80 85 92 100 148 156 160 155 158 152 146 146 137 121 92 86 79 104 79 70 63 48 63 67 60 73 97 94 98 99 99 93 90 91 88 84 91 79 84 83 83 76 87 87 89 85 83 98 91 83 105 133 149 161 150 191 131 132 101 57 0 332 265 186 20 357 351 22 36 54 52 46 39 24 19 17